USA 324

Last updated on Fri Jun 19 2026 17:09:34 GMT+0000 (Coordinated Universal Time)

1 51280U 22006A 26157.08795008 -.00000058 00000+0 00000+0 0 9996 2 51280 0.7690 83.2777 0002840 165.6787 110.1567 1.00289779 16021

Satellite not in orbit

USA 324